Regional Weather Roundup
Issued by NWS

Home | Current Version | Previous Version | Graphics & Text | Print | Product List | Glossary On
Versions: 1 2 3 4 5 6 7 8 9 10 11 12 13 14 15 16 17 18 19 20 21 22 23 24 25 26 27 28 29 30 31 32 33 34 35 36 37 38 39 40 41 42 43 44 45 46 47 48 49 50
858
ASUS44 KJAN 252210
RWRMS

MISSISSIPPI HOURLY WEATHER ROUNDUP
NATIONAL WEATHER SERVICE JACKSON MS
500 PM CDT FRI JUL 25 2014

NOTE: "FAIR: INDICATES FEW OR NO CLOUDS BELOW 12,000 FEET WITH NO
SIGNIFICANT WEATHER AND/OR OBSTRUCTIONS TO VISIBILITY.

MSZ001>002-007>008-010>013-018>021-025>028-034>036-252300-
NORTHWEST MISSISSIPPI

CITY           SKY/WX    TMP DP  RH WIND       PRES   REMARKS
CLARKSDALE     FAIR      84  70  61 CALM      30.02R
CLEVELAND      FAIR      85  72  65 N6        29.99F HX  90
GREENWOOD      SUNNY     85  62  46 N3        29.99F
GREENVILLE     SUNNY     87  69  54 CALM      29.99F HX  91
GRENADA        FAIR      84  63  48 CALM      30.00S
OLIVE BRANCH   MOSUNNY   84  63  48 E6        30.03R
OXFORD         FAIR      82  63  51 N3        30.03R
TUNICA         CLEAR     84  63  48 CALM      30.02R
$$

MSZ003>006-009-014>017-022>024-029>033-037>039-252300-
NORTHEAST MISSISSIPPI

CITY           SKY/WX    TMP DP  RH WIND       PRES   REMARKS
BELMONT        FAIR      82  65  56 W3        30.01S
COLUMBUS AFB   SUNNY     86  61  43 VRB2      30.00F
CORINTH        FAIR      84  63  48 N5        30.03R
GOLDN TRIANGLE MOSUNNY   88  66  48 N3        30.00F HX  90
STARKVILLE     FAIR      84  63  48 NW3       30.01S
TUPELO         SUNNY     85  62  46 E6        30.00S
$$

MSZ040-058-252300-
CENTRAL MISSISSIPPI

CITY           SKY/WX    TMP DP  RH WIND       PRES   REMARKS
JACKSON INTL   PTSUNNY   89  71  55 NW8       29.99F HX  95
JACKSON HAWKNS MOSUNNY   89  70  53 NW8       30.00F HX  94
MERIDIAN KEY   MOSUNNY   90  68  48 NW9       29.98S HX  94
MERIDIAN NAS   PTSUNNY   91  68  46 N8        29.99R HX  95
RAYMOND        FAIR      88  82  84 NW7       30.00S HX 108
VICKSBURG      MOSUNNY   89  73  59 N8        29.99S HX  97
$$

MSZ059>079-252300-
SOUTH MISSISSIPPI

CITY           SKY/WX    TMP DP  RH WIND       PRES   REMARKS
BROOKHAVEN     FAIR      90  75  62 N6        30.01S HX 100
COLUMBIA       FAIR      91  73  55 N8        29.96S HX 100
HATTIESBURG    PTSUNNY   93  71  48 NW7       29.98R HX 100
MCCOMB         MOSUNNY   90  71  53 NW5       29.98S HX  96
NATCHEZ        MOSUNNY   88  75  66 N3        29.99F HX  97
PINE BELT      MOSUNNY   91  70  49 N7        30.00S HX  97
$$

MSZ080>082-252300-
COASTAL MISSISSIPPI

CITY           SKY/WX    TMP DP  RH WIND       PRES   REMARKS
BAY ST LOUIS   MOSUNNY  N/A N/A N/A E6        29.98S
BILOXI         LGT RAIN  81  75  83 N5        29.99R
PASCAGOULA     CLOUDY    81  76  84 VRB6      29.98S
GULFPORT       RAIN      83  77  82 W8        29.98R HX  92
$$



USA.gov is the U.S. government's official web portal to all federal, state and local government web resources and services.